This demonstration page uses our WeatherBlox Daily Observations layout. Learn more.

41.86663, -103.66717

Hourly Observations for August 9, 2020

Temp ( °F °C ) Dew Point ( °F °C ) Humidity (%) Winds ( mph kmh ) Pressure ( in mb ) Visibility ( mi km ) Precip ( " mm )
12:53 am 00:53 Clear 67 19.4 50 10 55 55 ESE 8 13 29.86 1011 10 16.0934 0 0
1:53 am 01:53 Clear 61 16.1 52 11.1 72 72 NNE 3 6 29.87 1012 10 16.0934 0 0
2:53 am 02:53 Clear 60 15.6 52 11.1 75 75 NNE 5 7 29.86 1011 10 16.0934 0 0
3:53 am 03:53 Clear 58 14.4 51 10.6 78 78 E 5 7 29.84 1011 10 16.0934 0 0
4:53 am 04:53 Clear 58 14.4 51 10.6 78 78 Calm 29.84 1011 10 16.0934 0 0
5:53 am 05:53 Clear 56 13.3 51 10.6 84 84 N 5 7 29.88 1012 10 16.0934 0 0
6:53 am 06:53 Sunny 56 13.3 51 10.6 84 84 undefined N/A 29.89 1012 10 16.0934 0 0
7:53 am 07:53 Sunny 65 18.3 52 11.1 63 63 NW 3 6 29.89 1012 10 16.0934 0 0
8:53 am 08:53 Sunny 71 21.7 53 11.7 53 53 WNW 9 15 29.88 1012 10 16.0934 0 0
9:53 am 09:53 Sunny 77 25 53 11.7 43 43 WNW 9 15 29.86 1011 10 16.0934 0 0
10:53 am 10:53 Sunny 83 28.3 49 9.4 31 31 WNW 10 17 29.85 1011 10 16.0934 0 0
11:53 am 11:53 Sunny 89 31.7 52 11.1 28 28 NW 6 9 29.83 1010 10 16.0934 0 0
12:53 pm 12:53 Sunny 96 35.6 47 8.3 19 19 WNW 13 20 29.81 1010 10 16.0934 0 0
1:53 pm 13:53 Sunny 99 37.2 31 -0.6 9 9 NW 10 17 29.8 1009 10 16.0934 0 0
2:53 pm 14:53 Sunny 101 38.3 31 -0.6 8 8 NW 16 26 29.78 1008 10 16.0934 0 0
3:53 pm 15:53 Sunny 100 37.8 38 3.3 12 12 NW 13 20 29.78 1008 10 16.0934 0 0
4:53 pm 16:53 Sunny 100 37.8 35 1.7 10 10 NNW 13 20 29.78 1008 10 16.0934 0 0
5:53 pm 17:53 Sunny 93 33.9 52 11.1 25 25 ENE 16 26 29.8 1009 10 16.0934 0 0
6:53 pm 18:53 Sunny 87 30.6 52 11.1 30 30 ENE 20 31 29.82 1010 10 16.0934 0 0
7:53 pm 19:53 Sunny 81 27.2 52 11.1 37 37 ENE 15 24 29.83 1010 10 16.0934 0 0
8:53 pm 20:53 Clear 77 25 52 11.1 42 42 E 7 11 29.88 1012 10 16.0934 0 0
9:53 pm 21:53 Clear 75 23.9 50 10 41 41 E 12 19 29.88 1012 10 16.0934 0 0
10:53 pm 22:53 Clear 73 22.8 50 10 44 44 ESE 9 15 29.89 1012 10 16.0934 0 0
11:53 pm 23:53 Clear 70 21.1 50 10 49 49 E 12 19 29.89 1012 10 16.0934 0 0

Powered by AerisWeather